Regional Weather Roundup
Issued by NWS

Home | Current Version | Previous Version | Text Only | Print | Product List | Glossary Off
Versions: 1 2 3 4 5 6 7 8 9 10 11 12 13 14 15 16 17 18 19 20 21 22 23 24 25 26 27 28 29 30 31 32 33 34 35 36 37 38 39 40 41 42 43 44 45 46 47 48 49 50

000
ASUS43 KLMK 280310
RWRKY
KENTUCKY REGIONAL WEATHER ROUNDUP
NATIONAL WEATHER SERVICE LOUISVILLE KY
1000 PM EST MON FEB 27 2017

NOTE "FAIR" INDICATES FEW OR NO CLOUDS BELOW 12,000 FEET
WITH NO SIGNIFICANT WEATHER AND/OR OBSTRUCTIONS TO VISIBILITY.

KYZ001>023-026-027-061>063-070>075-280400-
WESTERN AND SOUTH CENTRAL KENTUCKY

CITY           SKY/WX    TMP DP  RH WIND       PRES   REMARKS
PADUCAH        PTCLDY    56  44  64 SE7       30.08S
HENDERSON      CLEAR     54  41  62 SE7       30.10S
OWENSBORO      PTCLDY    52  43  71 SE10      30.13S
HOPKINSVILLE   PTCLDY    55  44  65 S10       30.14R
BOWLING GREEN  CLEAR     52  43  71 S7        30.19R
GLASGOW        CLEAR     51  42  72 SE5       30.19R
$$

KYZ024-025-028>034-038-045-046-053-280400-
NORTH CENTRAL KENTUCKY

CITY           SKY/WX    TMP DP  RH WIND       PRES   REMARKS
LOUISVILLE/SDF PTCLDY    50  35  56 SE6       30.17R
LOUISVILLE/LOU PTCLDY    51  37  58 SE5       30.18S
FORT KNOX      PTCLDY    52  39  62 VRB5      30.14F
$$

KYZ035>037-039>044-047>052-055>060-089>105-280400-
NORTHEAST KENTUCKY

CITY           SKY/WX    TMP DP  RH WIND       PRES   REMARKS
LEXINGTON      CLEAR     47  37  68 SE8       30.22R
COVINGTON      CLEAR     43  40  89 SE8       30.19S
FRANKFORT      CLEAR     47  38  71 S6        30.19R
$$

KYZ054-064>069-076>088-106>120-280400-
SOUTHEAST KENTUCKY

CITY           SKY/WX    TMP DP  RH WIND       PRES   REMARKS
JACKSON        PTCLDY    50  31  48 S3        30.24R
LONDON         CLEAR     44  34  67 CALM      30.23S
SOMERSET       CLEAR     46  37  71 CALM      30.25R
MIDDLESBORO    PTCLDY    44  37  75 CALM      30.27R
MONTICELLO     CLEAR     49  42  77 NE8       30.24R
$$




USA.gov is the U.S. government's official web portal to all federal, state and local government web resources and services.